www.pogodaiklimat.ru

АРХИВ ПОГОДЫ в Хантингтоне

Время (UTC), дата Ветер
(напр.,м/с)
 
Видим.   Явления Облачность Т
(С)
Тd
(С)
f
(%)
Тe
(С)
Тes
(С)
Комфортность

P
(гПа)

Po
(гПа)
Тmin
(С)
Tmax
(С)
R
(мм)
SD
(см)
10:51 24.03   16 км    ясно  -0.6  -5.0  72  -1  -1    1024.7  994.0  -1.1  +2.2     
11:51 24.03   16 км    ясно  +2.2  -4.4  62  +2  +2    1024.4  993.7         
12:51 24.03 ЮВ  16 км    ясно  +6.1  -3.3  51  +5  +7    1023.8  993.4         
13:51 24.03 нст  16 км    ясно  +10.6  -3.9  36  +10  +16    1023.4  993.0         
14:51 24.03 ЮЗ  16 км    ясно  +13.3  -5.0  28  +12  +18    1023.1  992.7         
15:51 24.03 ЮЗ  16 км    ясно  +17.2  -5.6  21  +17  +26    1021.9  991.7         
16:51 24.03 З  16 км    ясно  +18.9  -7.8  16  +18  +26    1020.6  990.4  -0.6  +19.4     
17:51 24.03 ЮЗ  16 км    ясно  +20.6  -7.2  15  +20  +29    1019.3  989.1         
18:51 24.03 З  16 км    ясно  +20.0  -5.6  17  +20  +26    1018.7  988.8         
19:51 24.03 З  4
{8} 
16 км    ясно  +20.0  -5.0  18  +20  +26    1018.8  988.4         
20:51 24.03 СЗ  16 км    5/0 3600 м
[средняя] 
+18.9  -3.9  21  +19  +21    1018.4  988.1         
21:51 24.03 С  16 км    8/0 3300 м
[средняя] 
+17.8  -3.9  22  +18  +18    1018.4  988.1         
22:51 24.03 СЗ  16 км    8/0 3000 м
[средняя] 
+16.7  -2.8  26  +17  +17    1018.6  988.4  +16.7  +21.1     
23:51 24.03 СЗ  16 км    10/0 2850 м
[средняя] 
+15.6  -1.7  30  +15  +15    1018.9  988.8         
00:51 25.03 СВ  16 км  слабый дождь  10/0 2700 м
[средняя] 
+15.0  -1.1  33  +15  +15    1018.6  988.4         
01:51 25.03 В  16 км    10/0 2700 м
[средняя] 
+13.9  0.0  38  +14  +14    1018.4  988.4         
02:51 25.03 ЮВ  16 км    10/0 2700 м
[средняя] 
+13.9  -2.8  31  +13  +13    1017.4  987.4         
03:51 25.03   16 км    10/0 2250 м
[средняя] 
+12.8  -2.2  35  +13  +13    1017.4  987.4         
04:51 25.03 ЮВ  16 км    8/0 2100 м
[средняя] 
+13.3  -3.3  31  +13  +13    1016.5  986.8  +12.2  +16.7     
05:51 25.03   16 км    10/0 2100 м
[средняя] 
+12.2  -1.7  38  +12  +12    1016.2  986.5         
06:51 25.03   16 км    10/0 2700 м
[средняя] 
+12.2  -2.8  35  +12  +12    1015.1  985.5         
07:51 25.03 СЗ  8
{11} 
16 км    10/8 1800 м
[средняя] 
+10.6  +0.6  50  +7  +7    1016.5  986.8         
08:09 25.03 СЗ  4
{9} 
16 км  слабый дождь  10/5 1800 м
[средняя] 
+10.6  +4.4  65  +8  +8      986.5         
08:51 25.03 С  16 км    10/0 2250 м
[средняя] 
+10.0  +5.6  74  +8  +8    1015.6  985.8         
09:51 25.03 В  16 км    8/0 3600 м
[средняя] 
+9.4  +5.6  77  +7  +7    1015.2  985.5         
10:51 25.03 В  16 км    8/0 2250 м
[средняя] 
+9.4  +5.0  74  +8  +8    1015.0  985.1  +9.4  +13.3  0.3   
11:51 25.03 В  16 км  слабый дождь  10/10 1950 м  +9.4  +5.0  74  +7  +7    1015.1  985.1         
12:51 25.03 В  6 км  дождь  10/10 1110 м  +8.3  +5.6  83  +5  +5    1015.2  985.1         
13:51 25.03 СВ  16 км  слабый дождь  10/10 1410 м  +8.9  +6.7  86  +8  +8    1015.1  985.1      1.8   
14:51 25.03 СВ  16 км    10/10 1170 м  +9.4  +6.1  80  +8  +8    1015.3  985.5         
15:51 25.03 С  16 км    10/10 1020 м  +10.0  +6.7  80  +8  +8    1015.0  985.1         
16:51 25.03 СВ  16 км    10/10 1230 м  +10.0  +6.1  77  +8  +8    1015.0  985.1  +8.3  +10.6  1.8   
17:51 25.03 СВ  16 км    10/10 1230 м  +11.7  +7.2  74  +9  +9    1014.3  984.5         
18:51 25.03 СВ  16 км    10/10 1140 м  +11.7  +6.1  68  +10  +10    1014.3  984.5         
19:27 25.03 СВ  16 км    10/10 570 м  +11.7  +6.7  71  +9  +9      984.2         
19:51 25.03 С  16 км    10/10 540 м  +11.1  +6.7  74  +9  +9    1014.4  984.5         
20:51 25.03 СВ  16 км    10/10 450 м  +10.0  +6.1  77  +7  +7    1015.2  985.1         
21:02 25.03 СВ  16 км    10/10 390 м  +9.4  +6.1  80  +6  +6      985.1         
21:51 25.03 С  11 км    10/10 300 м  +8.3  +6.1  86  +5  +5    1016.3  986.1         
22:02 25.03 С  4
{8} 
6 км  дымка  10/10 270 м  +8.3  +6.1  86  +5  +5      986.1         
22:51 25.03 С  6
{8} 
8 км  дымка  10/10 240 м  +7.8  +5.6  86  +3  +3    1017.1  986.8  +7.8  +12.2     
23:51 25.03 С  16 км    10/10 240 м  +6.7  +4.4  85  +2  +2    1018.2  988.1         
00:44 26.03 С  5
{10} 
16 км  слабый дождь  10/10 330 м  +6.7  +3.9  82  +2  +2      988.8         
00:51 26.03 С  16 км    10/10 330 м  +6.7  +3.9  82  +2  +2    1019.3  989.1         
01:47 26.03 С  16 км    10/10 420 м  +6.0  +3.0  81  +2  +2      989.7         
01:51 26.03 С  16 км    10/10 420 м  +6.1  +2.8  79  +2  +2    1020.1  989.7         
02:51 26.03 С  16 км    10/10 1200 м  +6.1  +1.7  73  +2  +2    1020.7  990.4         
03:51 26.03 С  16 км    10/10 1500 м  +5.6  -0.6  64  0  0    1021.2  990.7         

 

Местоположение метеостанции Tri-State Airport: широта 38.3650 долгота -82.5550 высота над уровнем моря 252 м.

В архиве по умолчанию представлена погода в Хантингтоне за последние 1-2 суток. Обновление информации о фактической погоде в базе происходит ежечасно! Архивные данные за месяц целиком и за предыдущие месяцы Вы можете получить, выбрав интересующий диапазон дат из раскрывающегося списка и нажав кнопку "Ввод!".

Внимание! Архив погоды МЕТАР в базе сайта в настоящее время начинается c 1 января 2011 г. Нет смысла пытаться выбрать более раннюю дату.

Внимание! Время в таблицах - всемирное. Для получения местного времени необходимо прибавить поправку, которая в Хантингтоне равна -5 ч.

Ветер - указаны скорость ветра в м/с и направление, откуда дует ветер: С - северный, СВ - северо-восточный, В - восточный, ЮВ - юго-восточный, Ю - южный, ЮЗ - юго-западный, З - западный, СЗ - северо-западный.
Видимость - горизонтальная дальность видимости в метрах или километрах. При видимости от 1 до 10 км при отсутствии осадков обычно наблюдается дымка, при ухудшении видимости до 1 км и менее - туман. В сухую погоду видимость может ухудшаться дымом, пылью или мглою.
Атмосферные явления - указаны явления, наблюдавшиеся в указанный момент времени.
Облачность - указаны через наклонную черту верхняя и нижняя облачность в баллах и высота нижней границы облаков в метрах. Внимание: облачность, как и прочие метеорологические величины в США измеряются автоматическими метеостанциями. Указанные значения в баллах носят условный характер и показывают процент времени, в течение которого, в среднем, лазерный луч высотомера отражался от облаков обратно.
T - Температура воздуха - температура, измеренная на высоте 2 м над землей.
Td - Температура точки росы - температура, при понижении до которой содержащийся в воздухе водяной пар достигнет насыщения.
f - Относительная влажность воздуха - влажноcть воздуха, измеренная на высоте 2 м над землей.
Te - Эффективная температура - температура, которую ощущает одетый по сезону человек в тени. Характеристика душности погоды. При расчете учитывается влияние влажности воздуха и скорости ветра на теплоощущения человека.
Tes - Эффективная температура на солнце - температура, которую ощущает человек, с поправкой на солнечный нагрев. Характеристика знойности погоды. Зависит от высоты солнца над горизонтом, облачности и скорости ветра. Ночью, в пасмурную погоду, а также при ветре 12 м/с и более поправка равна нулю.
P - Атмосферное давление - приведенное к уровню моря атмосферное давление.
Po - Атмосферное давление - измеренное на уровне метеостанции атмосферное давление.
Tmin - Минимальная температура - минимум температуры воздуха на высоте 2 м над землей.
Tmax - Максимальная температура - максимум температуры воздуха на высоте 2 м над землей.
R - Количество осадков - Количество выпавших осадков за 3 или 6 часов, мм.
SD - Снежный покров - Высота снежного покрова, см.